Weather in Kabayevo

Russia / Republic of Mordovia     54°31′32″N   46°28′26″E
temp.,
°C
wind,
m/s
gust,
m/s
humid.,
%
clouds,
%
prec.,
mm/h
press.,
hPa
HPBL,
m
9 may, sun
sun900:00+11sse349198 0.0 101164
03:00+10sse3689100 0.0 1010103
06:00+12sse41381100 0.0 1010334
09:00+16sse71572100 0.0 1009714
12:00+15sse51283100 0.4 1010418
15:00+19sse71267100 0.4 10091168
18:00+17s51270100 0.3 1009364
21:00+13ssw2278100 0.4 101115
10 may, mon
mon1000:00+11nw2494100 0.0 1013112
03:00+11s1195100 0.8 101523
06:00+12nne2694100 0.1 1015234
09:00+15nne3383100 0.1 1017360
12:00+18ne6772100 0.0 1018737
15:00+22ne455648 0.1 10181236
18:00+16n478298 3.2 1019106
21:00+14n6119596 4.5 1021285
11 may, tue
tue1100:00+13nne6119759 0.0 1022293
03:00+12ne4119678 0.0 1023272
06:00+13nne499363 0.0 1024247
09:00+18ene5866100 0.0 1024506
12:00+21e5859100 0.0 10251003
15:00+22e5854100 0.0 10251829
18:00+19e386677 0.0 1026185
21:00+16ene227430 0.0 102617
12 may, wed
wed1200:00+13e227710 0.0 102711
03:00+12ene227610 0.0 102618
06:00+14e31076100 0.0 1027266
09:00+18ese586998 0.0 1027530
12:00+17ese4107378 0.0 1027404
15:00+21ese695519 0.0 10261386
18:00+19ese486713 0.0 1026210
21:00+16ese367299 0.0 1026122
13 may, thu
thu1300:00+13ese227316 0.0 102616
03:00+13e227129 0.0 102626
06:00+14e3107379 0.0 1026275
09:00+17ese5106583 0.0 1025438
12:00+22se794778 0.0 10241121
15:00+23ese565275 0.0 10241303
18:00+20ese3869100 0.0 1023200
21:00+17se3771100 0.0 1024129